Погода в Эдессе

Греция     40°48′02″N   22°02′59″E
темп.,
°C
ветер,
м/с
пор.,
м/с
влажн.,
%
обл.,
%
осадки,
мм/ч
давл.,
гПа
погр.,
м
26 февраля, пт
пт2623:00+9юз11670 0.0 103326
02:00+8юз11700 0.0 103227
05:00+7юз11730 0.0 103127
08:00+7юз11730 0.0 103026
11:00+12в11590 0.0 1029367
14:00+14в21610 0.0 1026519
17:00+13в21660 0.0 1025264
20:00+10зюз01780 0.0 102524
27 февраля, сб
сб2723:00+10юз11760 0.0 102425
02:00+9зюз12750 0.0 102326
05:00+8зюз22730 0.0 102225
08:00+9зюз22730 0.0 102131
11:00+14з12560 0.0 1021403
14:00+17с45390 0.0 10191221
17:00+14с57490 0.0 1019858
20:00+9сз48650 0.0 1021345
28 февраля, вс
вс2823:00+8сз34650 0.0 1022121
02:00+6сз46630 0.0 1023195
05:00+4зсз34610 0.0 1023128
08:00+4зсз346738 0.0 1025194
11:00+7ссз34540 0.0 1026953
14:00+9с33474 0.0 10261396
17:00+8ссв344727 0.0 10261108
20:00+5с235916 0.0 1028114
1 марта, пн
пн123:00+3ссз22627 0.0 103144
02:00+3з12654 0.0 103132
05:00+2зюз22690 0.0 103135
08:00+2зюз22700 0.0 103168
11:00+7юв02530 0.0 1031658
14:00+9юв12470 0.0 1029943
17:00+9вюв22510 0.0 1028625
20:00+5ссв01660 0.0 103032
2 марта, вт
вт223:00+4зсз11610 0.0 103226
02:00+3ссв01610 0.0 103328
05:00+2ссз11640 0.0 103329
08:00+3з11663 0.0 103446
11:00+6всв11580 0.0 1034700
14:00+9в21460 0.0 10331013
17:00+9юв11470 0.0 1032852
20:00+6зсз11610 0.0 103426